Weather Roundup
Issued by NWS Chicago, IL

Home | Current Version | Previous Version | Graphics & Text | Print | Product List | Glossary On
Versions: 1 2 3 4 5 6 7 8 9 10 11 12 13 14 15 16 17 18 19 20 21 22 23 24 25 26 27 28 29 30 31 32 33 34 35 36 37 38 39 40 41 42 43 44 45 46 47 48 49 50
184
NZUS59 KLOT 270108
HRRLOT

CHICAGO AREA WEATHER ROUNDUP
NATIONAL WEATHER SERVICE CHICAGO/ROMEOVILLE IL
800 PM CDT SAT MAY 26 2018

NOTE: "FAIR" INDICATES FEW OR NO CLOUDS BELOW 12,000 FEET WITH NO
SIGNIFICANT WEATHER AND/OR OBSTRUCTIONS TO VISIBILITY.

* THESE STATIONS ARE NOT UNDER NWS QUALITY CONTROL. THEY ALSO MAY NOT
  REPORT WEATHER SUCH AS PRECIPITATION OR FOG.

ILZ005-006-012>014-019>023-270200-
NORTHEAST ILLINOIS

CITY           SKY/WX    TMP DP  RH WIND       PRES   REMARKS
OHARE            N/A     83  59  44 E9        29.75R HX  83
MIDWAY           N/A     83  58  42 E8        29.75R HX  83
AURORA           N/A     86  61  42 NW5       29.75R HX  86
LANSING*         N/A     83  65  54 CALM      29.76R HX  84
JOLIET*          N/A     87  64  46 CALM      29.75R HX  88
WAUKEGAN         N/A     73  59  61 SE6       29.75R
DUPAGE AIRPORT   N/A     86  61  42 NW3       29.75R HX  86
WHEELING         N/A     81  61  50 SE7       29.77R HX  82
KANKAKEE*        N/A     83  60  44 CALM      29.77S HX  83
MORRIS*          N/A     84  62  47 SW5       29.74S HX  85
LEWIS AIRPORT*   N/A     85  62  45 CALM      29.76R HX  85
NORTHERLY ISL    N/A    -25 -58  16 S1          N/A
$$

WIZ051-052-058>065-066-070>072-270200-
SOUTHEAST WISCONSIN

CITY           SKY/WX    TMP DP  RH WIND       PRES   REMARKS
MILWAUKEE        N/A     79  62  56 S7        29.75R HX  80
KENOSHA*         N/A     78  60  53 S6        29.76R
RACINE*          N/A     75  58  55 S7        29.77R
BURLINGTON       N/A     84  60  44 CALM      29.76R HX  84
WAUKESHA       CLEAR     82  59  44 CALM      29.77R HX  82
WEST BEND        N/A     82  57  42 CALM      29.75R HX  82
$$

INZ001>003-010>013-019-020-270200-
NORTHWEST INDIANA

CITY           SKY/WX    TMP DP  RH WIND       PRES   REMARKS
GARY*          PTCLDY    82  57  42 NE5       29.77R HX  82
MICHIGAN CITY* NOT AVBL
RENSSELAER*    NOT AVBL
VALPARAISO       N/A     84  63  49 CALM      29.78R HX  85
$$

LMZ740>746-270200-
SOUTHERN LAKE MICHIGAN

STATION/POSITION TIME  SKY/WX   TEMP WIND        PRES    VSBY
                                AIR  DIR/SP/G
                 (UTC)          (F)  (DEG/KT/KT) (MB)    (MI)
HARRISON CRIB    0040            72  160/  7/  8   N/A
BURNHAM HARBOR   0100                 CALM  /  2   N/A
CALUMET HARBOR   0048            72   80/  5/  7 1007.6R
BURNS HARBOR     0040            74   80/  8/  9 1008.5R
MICHIGAN CITY    0040            78   40/  9/  9   N/A
$$

ABBREVIATIONS USED IN REMARKS
   TC - TEMPERATURE IN CELSIUS
  WCI - WIND CHILL INDEX
   HX - HEAT INDEX
  VSB - VISIBILITY
$$




USA.gov is the U.S. government's official web portal to all federal, state and local government web resources and services.